Radiation Dose at Monitoring Post of Fukushima Daini Nuclear Power Station
Date,Time,MP-1(microSv/h),MP-2(microSv/h),MP-3(microSv/h),MP-4(microSv/h),MP-5(microSv/h),MP-6(microSv/h),MP-7(microSv/h),Wind Direction,Wind Velocity(m/s),Rain
2023/11/28,00:00,0.149,0.136,0.215,0.203,0.210,0.121,0.079,south,3.5,No
2023/11/28,00:10,0.149,0.135,0.214,0.204,0.209,0.121,0.077,south,2.8,No
2023/11/28,00:20,0.150,0.136,0.213,0.204,0.209,0.121,0.078,south-southwest,2.0,No
2023/11/28,00:30,0.149,0.136,0.215,0.203,0.210,0.121,0.078,west-southwest,1.9,No
2023/11/28,00:40,0.150,0.135,0.215,0.203,0.210,0.121,0.078,southwest,1.1,No
2023/11/28,00:50,0.150,0.136,0.214,0.204,0.210,0.121,0.079,west,1.0,No
2023/11/28,01:00,0.149,0.136,0.214,0.204,0.209,0.120,0.078,west,1.1,No
2023/11/28,01:10,0.149,0.136,0.215,0.204,0.210,0.121,0.078,-,CALM,No
2023/11/28,01:20,0.150,0.135,0.215,0.204,0.210,0.122,0.078,south-southeast,1.1,No
2023/11/28,01:30,0.149,0.136,0.214,0.203,0.210,0.120,0.079,-,CALM,No
2023/11/28,01:40,0.149,0.135,0.214,0.203,0.209,0.121,0.078,south-southwest,1.4,No
2023/11/28,01:50,0.150,0.135,0.215,0.204,0.209,0.120,0.078,south-southwest,1.4,No
2023/11/28,02:00,0.149,0.136,0.215,0.203,0.210,0.120,0.079,southwest,1.1,No
2023/11/28,02:10,0.150,0.136,0.214,0.204,0.211,0.121,0.078,west-southwest,2.2,No
2023/11/28,02:20,0.150,0.135,0.215,0.203,0.210,0.121,0.078,west,1.1,No
2023/11/28,02:30,0.150,0.135,0.215,0.203,0.209,0.120,0.078,west-northwest,2.2,No
2023/11/28,02:40,0.149,0.135,0.214,0.203,0.209,0.121,0.079,west,1.1,No
2023/11/28,02:50,0.149,0.136,0.214,0.204,0.210,0.120,0.078,west-southwest,1.9,No
2023/11/28,03:00,0.150,0.135,0.215,0.203,0.208,0.120,0.079,southwest,1.9,No
2023/11/28,03:10,0.150,0.136,0.215,0.203,0.210,0.120,0.078,south-southwest,2.4,No
2023/11/28,03:20,0.149,0.135,0.214,0.203,0.211,0.121,0.078,southwest,3.7,No
2023/11/28,03:30,0.149,0.135,0.215,0.203,0.210,0.119,0.078,south-southwest,2.4,No
2023/11/28,03:40,0.149,0.136,0.214,0.203,0.209,0.120,0.078,south-southwest,2.8,No
2023/11/28,03:50,0.149,0.136,0.215,0.204,0.210,0.121,0.078,southwest,4.5,No
2023/11/28,04:00,0.149,0.136,0.215,0.202,0.210,0.121,0.078,southwest,4.4,No
2023/11/28,04:10,0.150,0.135,0.213,0.203,0.209,0.120,0.078,west-southwest,2.6,No
2023/11/28,04:20,0.150,0.135,0.214,0.204,0.209,0.120,0.078,west,3.0,No
2023/11/28,04:30,0.149,0.135,0.214,0.205,0.211,0.120,0.078,west,2.8,No
2023/11/28,04:40,0.148,0.136,0.215,0.203,0.209,0.120,0.078,west,3.1,No
2023/11/28,04:50,0.149,0.135,0.214,0.202,0.210,0.120,0.078,west,1.9,No
2023/11/28,05:00,0.149,0.136,0.212,0.202,0.209,0.121,0.078,west-southwest,0.9,No
2023/11/28,05:10,0.149,0.135,0.214,0.203,0.210,0.120,0.078,southwest,1.8,No
2023/11/28,05:20,0.149,0.136,0.215,0.203,0.210,0.120,0.078,west-southwest,2.2,No
2023/11/28,05:30,0.150,0.136,0.214,0.203,0.210,0.121,0.078,west-southwest,3.5,No
2023/11/28,05:40,0.149,0.135,0.214,0.203,0.209,0.121,0.078,southwest,4.7,No
2023/11/28,05:50,0.149,0.135,0.215,0.203,0.211,0.121,0.077,southwest,4.9,No
2023/11/28,06:00,0.150,0.136,0.215,0.202,0.210,0.121,0.078,southwest,3.5,No
2023/11/28,06:10,0.149,0.135,0.214,0.203,0.209,0.120,0.078,southwest,3.7,No
2023/11/28,06:20,0.150,0.134,0.213,0.203,0.210,0.120,0.077,southwest,3.9,No
2023/11/28,06:30,0.150,0.135,0.214,0.203,0.210,0.120,0.078,southwest,5.2,No
2023/11/28,06:40,0.149,0.136,0.214,0.203,0.209,0.120,0.078,west-southwest,3.9,No
2023/11/28,06:50,0.150,0.135,0.214,0.204,0.210,0.120,0.078,west-southwest,4.5,No
2023/11/28,07:00,0.150,0.135,0.214,0.203,0.210,0.120,0.078,west-southwest,4.6,No
2023/11/28,07:10,0.150,0.136,0.212,0.204,0.210,0.120,0.078,west-southwest,2.7,No
2023/11/28,07:20,0.150,0.135,0.214,0.204,0.210,0.120,0.078,west-southwest,1.7,No
2023/11/28,07:30,0.149,0.135,0.214,0.203,0.208,0.120,0.078,southwest,1.7,No
2023/11/28,07:40,0.150,0.136,0.213,0.203,0.211,0.121,0.078,southwest,1.2,No
2023/11/28,07:50,0.149,0.135,0.214,0.203,0.209,0.120,0.078,southwest,2.1,No
2023/11/28,08:00,0.150,0.135,0.215,0.203,0.210,0.121,0.078,west-southwest,1.4,No
2023/11/28,08:10,0.149,0.136,0.214,0.203,0.209,0.121,0.078,west-southwest,1.8,No
2023/11/28,08:20,0.149,0.135,0.214,0.204,0.208,0.120,0.077,west-southwest,3.3,No
2023/11/28,08:30,0.149,0.135,0.214,0.203,0.210,0.120,0.078,southwest,2.5,No
2023/11/28,08:40,0.149,0.135,0.213,0.203,0.209,0.121,0.078,west,3.8,No
2023/11/28,08:50,0.148,0.134,0.213,0.203,0.210,0.121,0.078,west,4.5,No
2023/11/28,09:00,0.150,0.135,0.214,0.201,0.210,0.120,0.077,west,2.4,No
2023/11/28,09:10,0.149,0.135,0.213,0.203,0.209,0.121,0.078,west-northwest,4.4,No
2023/11/28,09:20,0.149,0.134,0.213,0.201,0.210,0.119,0.077,west-northwest,3.8,No
2023/11/28,09:30,0.150,0.135,0.214,0.203,0.208,0.120,0.078,west,2.1,No
2023/11/28,09:40,0.149,0.134,0.214,0.201,0.208,0.119,0.078,west-southwest,2.9,No
2023/11/28,09:50,0.150,0.135,0.213,0.202,0.209,0.121,0.078,west,1.8,No
2023/11/28,10:00,0.149,0.134,0.215,0.203,0.207,0.119,0.078,east-northeast,1.2,No
2023/11/28,10:10,0.149,0.134,0.213,0.202,0.209,0.120,0.078,east-southeast,0.8,No
2023/11/28,10:20,0.147,0.135,0.214,0.203,0.208,0.119,0.078,east-northeast,1.0,No
2023/11/28,10:30,0.148,0.135,0.211,0.203,0.206,0.120,0.077,southwest,1.7,No
2023/11/28,10:40,0.148,0.134,0.211,0.200,0.208,0.120,0.078,west,3.5,No
2023/11/28,10:50,0.146,0.136,0.213,0.204,0.209,0.120,0.078,west,6.7,No
2023/11/28,11:00,0.149,0.135,0.211,0.203,0.207,0.120,0.077,west-northwest,5.1,No
2023/11/28,11:10,0.149,0.135,0.214,0.200,0.208,0.120,0.078,west,5.4,No
2023/11/28,11:20,0.148,0.135,0.213,0.204,0.210,0.121,0.078,west-northwest,8.5,No
2023/11/28,11:30,0.149,0.135,0.213,0.202,0.209,0.119,0.077,west,8.4,No
2023/11/28,11:40,0.150,0.135,0.215,0.202,0.207,0.120,0.076,west-northwest,8.4,No
2023/11/28,11:50,0.147,0.135,0.214,0.204,0.210,0.120,0.078,west,7.4,No
2023/11/28,12:00,0.149,0.135,0.212,0.201,0.209,0.120,0.078,west-northwest,7.0,No
2023/11/28,12:10,0.149,0.135,0.216,0.203,0.208,0.121,0.077,west-northwest,7.6,No
2023/11/28,12:20,0.148,0.135,0.212,0.204,0.210,0.120,0.078,west-northwest,11.2,No
2023/11/28,12:30,0.149,0.135,0.212,0.201,0.210,0.122,0.078,west-northwest,8.4,No
2023/11/28,12:40,0.149,0.136,0.216,0.203,0.208,0.121,0.079,west-northwest,9.0,No
2023/11/28,12:50,0.148,0.135,0.212,0.203,0.211,0.120,0.079,west-northwest,4.9,No
2023/11/28,13:00,0.151,0.135,0.214,0.202,0.209,0.121,0.078,west-northwest,7.0,No
2023/11/28,13:10,0.149,0.136,0.215,0.203,0.211,0.119,0.077,northwest,5.8,No
2023/11/28,13:20,0.148,0.134,0.215,0.203,0.210,0.121,0.078,west-northwest,9.5,No
2023/11/28,13:30,0.150,0.135,0.214,0.203,0.209,0.121,0.078,west,11.1,No
2023/11/28,13:40,0.149,0.135,0.214,0.204,0.208,0.121,0.077,west-northwest,10.1,No
2023/11/28,13:50,0.150,0.135,0.215,0.203,0.209,0.120,0.079,west,13.4,No
2023/11/28,14:00,0.150,0.135,0.216,0.204,0.210,0.120,0.077,west,16.2,No
2023/11/28,14:10,0.150,0.135,0.214,0.202,0.208,0.121,0.078,west,16.5,No
2023/11/28,14:20,0.149,0.135,0.215,0.205,0.211,0.120,0.078,northwest,12.2,No
2023/11/28,14:30,0.150,0.135,0.215,0.203,0.210,0.121,0.078,west-northwest,14.5,Yes
2023/11/28,14:40,0.149,0.136,0.215,0.205,0.210,0.120,0.077,west-northwest,15.5,Yes
2023/11/28,14:50,0.151,0.135,0.215,0.204,0.210,0.121,0.078,west,17.9,Yes
2023/11/28,15:00,0.151,0.137,0.216,0.204,0.211,0.122,0.079,west-northwest,14.9,Yes
2023/11/28,15:10,0.151,0.136,0.217,0.206,0.213,0.122,0.079,west-northwest,14.5,Yes
2023/11/28,15:20,0.151,0.137,0.216,0.206,0.210,0.122,0.079,west-northwest,17.4,Yes
2023/11/28,15:30,0.151,0.137,0.214,0.206,0.212,0.121,0.079,west-northwest,16.9,Yes
2023/11/28,15:40,0.151,0.137,0.217,0.206,0.211,0.123,0.080,west-northwest,13.4,Yes
2023/11/28,15:50,0.153,0.138,0.218,0.208,0.213,0.125,0.081,west-northwest,15.1,Yes
2023/11/28,16:00,0.152,0.138,0.217,0.207,0.215,0.125,0.082,west-northwest,16.3,No
2023/11/28,16:10,0.152,0.138,0.217,0.208,0.213,0.123,0.081,west-northwest,14.0,No
2023/11/28,16:20,0.152,0.138,0.216,0.206,0.213,0.123,0.081,west,15.0,No
2023/11/28,16:30,0.151,0.137,0.217,0.207,0.213,0.123,0.080,west-northwest,13.6,No
2023/11/28,16:40,0.151,0.137,0.216,0.205,0.210,0.122,0.080,west-northwest,15.4,No
2023/11/28,16:50,0.152,0.136,0.217,0.205,0.211,0.122,0.079,west,14.7,No
2023/11/28,17:00,0.151,0.137,0.216,0.206,0.211,0.122,0.080,west-northwest,16.9,No
2023/11/28,17:10,0.152,0.137,0.216,0.204,0.211,0.121,0.078,west,17.0,No
2023/11/28,17:20,0.150,0.136,0.216,0.204,0.212,0.122,0.079,west-northwest,17.3,No
2023/11/28,17:30,0.151,0.135,0.215,0.204,0.211,0.121,0.078,west,16.9,No
2023/11/28,17:40,0.150,0.136,0.216,0.204,0.210,0.122,0.079,west,21.2,No
2023/11/28,17:50,0.150,0.136,0.215,0.204,0.210,0.122,0.078,west,17.7,No
2023/11/28,18:00,0.150,0.136,0.216,0.205,0.210,0.121,0.078,west,18.0,No
2023/11/28,18:10,0.151,0.134,0.215,0.204,0.210,0.120,0.078,west,17.0,No
2023/11/28,18:20,0.151,0.135,0.215,0.204,0.212,0.120,0.078,west-northwest,18.3,No
2023/11/28,18:30,0.150,0.136,0.215,0.204,0.211,0.121,0.078,west-northwest,15.1,No
2023/11/28,18:40,0.150,0.136,0.215,0.204,0.211,0.120,0.078,west-northwest,15.4,No
2023/11/28,18:50,0.151,0.137,0.216,0.204,0.211,0.121,0.078,west-northwest,10.6,No
2023/11/28,19:00,0.150,0.136,0.215,0.205,0.211,0.122,0.078,west,15.8,No
2023/11/28,19:10,0.151,0.136,0.216,0.204,0.210,0.121,0.078,west,14.0,No
2023/11/28,19:20,0.151,0.136,0.215,0.204,0.211,0.122,0.079,west,13.4,No
2023/11/28,19:30,0.150,0.136,0.215,0.204,0.210,0.121,0.078,west,18.4,No
2023/11/28,19:40,0.150,0.135,0.215,0.204,0.210,0.120,0.078,west,15.3,No
2023/11/28,19:50,0.150,0.136,0.215,0.204,0.211,0.121,0.078,west-northwest,12.2,No
2023/11/28,20:00,0.150,0.136,0.215,0.204,0.210,0.120,0.078,west-northwest,14.8,No
2023/11/28,20:10,0.149,0.135,0.215,0.203,0.210,0.122,0.078,west,17.0,No
2023/11/28,20:20,0.150,0.135,0.215,0.204,0.211,0.121,0.078,west,18.9,Yes
2023/11/28,20:30,0.150,0.136,0.214,0.204,0.211,0.121,0.077,west,14.9,Yes
2023/11/28,20:40,0.150,0.136,0.215,0.205,0.210,0.121,0.078,west-northwest,14.8,Yes
2023/11/28,20:50,0.151,0.136,0.216,0.205,0.210,0.122,0.078,west,10.9,No
2023/11/28,21:00,0.150,0.136,0.215,0.205,0.210,0.121,0.077,west,8.8,No
2023/11/28,21:10,0.150,0.136,0.215,0.204,0.210,0.121,0.078,west,8.4,No
2023/11/28,21:20,0.150,0.136,0.216,0.205,0.210,0.121,0.078,west,7.5,No
2023/11/28,21:30,0.150,0.136,0.215,0.204,0.210,0.121,0.078,west,8.3,No
2023/11/28,21:40,0.150,0.137,0.216,0.205,0.210,0.121,0.078,west-northwest,7.9,No
2023/11/28,21:50,0.150,0.136,0.216,0.205,0.209,0.122,0.077,west-northwest,6.2,No
2023/11/28,22:00,0.151,0.136,0.216,0.205,0.211,0.121,0.078,west-northwest,7.0,No
2023/11/28,22:10,0.150,0.136,0.216,0.206,0.210,0.121,0.078,west-northwest,6.6,No
2023/11/28,22:20,0.151,0.135,0.215,0.204,0.209,0.121,0.078,west,7.5,No
2023/11/28,22:30,0.150,0.136,0.215,0.203,0.211,0.121,0.078,west,7.7,No
2023/11/28,22:40,0.150,0.136,0.214,0.205,0.210,0.121,0.079,west,7.3,No
2023/11/28,22:50,0.150,0.136,0.216,0.204,0.210,0.122,0.078,west,5.6,No
2023/11/28,23:00,0.150,0.136,0.215,0.204,0.209,0.121,0.078,west,6.6,No
2023/11/28,23:10,0.150,0.135,0.216,0.204,0.210,0.121,0.078,west-northwest,4.6,No
2023/11/28,23:20,0.149,0.135,0.215,0.204,0.209,0.120,0.078,west-northwest,3.1,No
2023/11/28,23:30,0.150,0.136,0.216,0.205,0.210,0.121,0.078,west,3.4,Yes
2023/11/28,23:40,0.149,0.136,0.216,0.203,0.210,0.121,0.077,west-northwest,3.1,No
2023/11/28,23:50,0.150,0.136,0.215,0.205,0.210,0.120,0.078,west-southwest,1.6,No
